Starlink 11090

operational
NORAD ID: 59422 Int'l Des: 2024-065 Owner: SPXS Country: US Constellation: starlink
LEOCIRCULAR

About Starlink 11090

Description loading...

Live Position

Loading 3D Globe...

Upcoming Passes

Altitude History

Altitude vs Time

uPlot chart will show altitude changes over time

Two-Line Element Set

1 59422U 24065B 25303.48644727 .00001697 00000-0 18846-4 0 9998
2 59422 53.1583 15.7063 0001121 105.3173 254.7969 15.69738807 91080
Epoch: Oct 30, 2025 • Age: 31 hours

Current Status

Altitude 365.5 km
Velocity 7.70 km/s
Sub-Earth Point 53.31°N, 140.41°E
Launch Date Apr 7, 2024
Age 1.5 years
Type internet

Technical Details

Classification Payload
Mass 960.00 kg
Dry Mass 910.00 kg
Total Mass 960.00 kg
Length 0.30 m
Diameter 4.10 m
Span 29.00 m
Shape Box + pan
Manufacturer SPXS
Bus Type Starlink V2MD
Phase Status In Orbit
Owner/State SPXS/US

Large Constellations

Loading constellations...